Location: Mountain Grove
(34.0887°N, 86.6172°W)
Time: 00:18:08
(UTC+00:00)

SL-08 R/B - Pass Details

Date: 14 July 2020
Orbit: 674 x 739 km, 98.4° (Epoch: 12 August)

Event Time Altitude Azimuth Distance (km) Brightness Sun altitude
Exits shadow 09:37:10 19° 231° (SW) 1,646 4.6 -12.9°
Maximum altitude 09:39:03 24° 264° (W) 1,448 4.5 -12.5°
Drops below altitude 10° 09:42:53 10° 318° (NW) 2,191 5.8 -11.9°
Sets 09:45:35 0° 332° (NNW) 3,127 6.8 -11.5°
